Estació municipal de Vilalleons (Osona, E.N.Guilleries-Savassona)

Consulta les dades en temps real de l'estació municipal de Vilalleons





Hora UTC 03:40
Temperatura 6.1 ºC
Humitat 94.0 %
Pressió 1012.4 hPa
Pluja 0.0 mm
Velocitat vent 0.0 km/h
Direcció vent ESE

Webcam

Dades diàries 2026-05-08



Hora UTC (hivern +1h; estiu +2h)
Temperatura (ºC) Humitat (%) Pressió (hPa) Velocitat vent (km/h) Precipitació (mm)
Hora UTC Aire Humitat Pressió Vel. Dir. Vel. Max Dir. Intent. màx 5 min.
00:05 8.1 93.0 1013.4 0.0 N 0.0 0.0
00:10 8.2 94.0 1013.4 0.0 N 0.0 0.0
00:15 8.1 93.0 1013.2 0.0 N 0.0 0.0
00:20 8.1 93.0 1013.4 0.0 N 0.0 0.0
00:25 8.1 94.0 1013.4 0.0 N 0.0 0.0
00:30 8.1 94.0 1013.3 0.0 N 0.0 0.0
00:35 8.1 94.0 1013.3 0.0 N 0.0 0.0
00:40 8.1 94.0 1013.3 0.0 N 0.0 0.0
00:45 8.2 94.0 1013.4 0.0 N 0.0 0.0
00:50 8.1 94.0 1013.4 0.0 N 0.0 0.0
00:55 8.1 94.0 1013.3 0.0 N 0.0 0.0
01:00 7.9 94.0 1013.1 0.0 N 0.0 0.0
01:05 7.9 94.0 1013.1 0.0 N 0.0 0.0
01:10 7.9 94.0 1013.0 0.0 N 0.0 0.0
01:15 7.8 94.0 1013.1 0.0 ESE 0.0 0.0
01:20 7.8 94.0 1013.1 0.0 ESE 0.0 0.0
01:25 7.8 94.0 1013.2 0.0 N 0.0 0.0
01:30 7.8 94.0 1013.0 0.0 N 0.0 0.0
01:35 7.7 94.0 1013.0 0.0 N 0.0 0.0
01:40 7.6 94.0 1013.0 0.0 N 0.0 0.0
01:45 7.6 94.0 1012.9 0.0 ESE 0.0 0.0
01:50 7.6 94.0 1012.9 0.0 ESE 0.0 0.0
01:55 7.4 94.0 1012.9 0.0 N 0.0 0.0
02:00 7.3 94.0 1012.9 0.0 ESE 0.0 0.0
02:05 7.3 94.0 1012.7 0.0 ESE 0.0 0.0
02:10 7.3 94.0 1012.8 0.0 N 0.0 0.0
02:15 7.2 94.0 1012.6 0.0 ESE 0.0 0.0
02:20 7.1 94.0 1012.6 0.0 ESE 0.0 0.0
02:25 7.1 94.0 1012.7 0.0 N 0.0 0.0
02:30 7.1 94.0 1012.9 0.0 ESE 0.0 0.0
02:35 7.1 94.0 1012.9 0.0 N 0.0 0.0
02:40 7.1 94.0 1012.8 0.0 ESE 0.0 0.0
02:45 6.9 94.0 1012.8 0.0 N 0.0 0.0
02:50 6.8 94.0 1012.8 0.0 N 0.0 0.0
02:55 6.8 94.0 1012.8 0.0 N 0.0 0.0
03:00 6.8 94.0 1012.6 0.0 N 0.0 0.0
03:05 6.7 94.0 1012.7 0.0 N 0.0 0.0
03:10 6.6 94.0 1012.5 0.0 N 0.0 0.0
03:15 6.5 94.0 1012.6 0.0 ESE 0.0 0.0
03:20 6.4 94.0 1012.5 0.0 ESE 0.0 0.0
03:25 6.3 94.0 1012.4 0.0 ESE 0.0 0.0
03:30 6.3 94.0 1012.5 0.0 N 0.0 0.0
03:35 6.1 94.0 1012.3 0.0 N 0.0 0.0
03:40 6.1 94.0 1012.4 0.0 ESE 0.0 0.0
Màxima 8.2 94.0 1013.4 0.0 ESE 0.0 0.0
Mínima 6.1 93.0 1012.3
Total 0.0